Location: Mapua
(41.2500°S, 173.1000°E)
Time: 08:07:51
(UTC+12:00)

ISS - Pass Details

Date: 29 March 2019
Orbit: 408 x 410 km, 51.6° (Epoch: 24 April)

Event Time Altitude Azimuth Distance (km) Brightness Sun altitude
Exits shadow 06:28:42 20° 319° (NW) 1,017 -2.2 -14.0°
Maximum altitude 06:30:50 68° 39° (NE) 454 -3.5 -13.6°
Drops below altitude 10° 06:34:12 10° 121° (ESE) 1,508 0.2 -13.0°
Sets 06:36:19 0° 124° (ESE) 2,377 1.3 -12.6°
